DW5891 Weather Reports


time (UTC)temp
C
wind
direction
speed
KPH
gust
KPH
rain 1hr
cm
rain 24hr
cm
rain mn
cm
humidity
%
barometer
mb
20260502190005 19 303 25.7 0.0 0.00 0.00 0.00 36 1004.1
20260502184504 19 307 25.7 0.0 0.00 0.00 0.00 36 1004.1
20260502183003 19 346 29.0 0.0 0.00 0.00 0.00 36 1004.1
20260502181507 18 337 22.5 0.0 0.00 0.00 0.00 35 1004.2
20260502163053 18 340 19.3 0.0 0.00 0.00 0.00 41 1004.1
20260502161550 17 336 17.7 0.0 0.00 0.00 0.00 42 1004.1
20260502151541 15 286 12.9 0.0 0.00 0.00 0.00 46 1004.0
20260502123018 9 148 6.4 0.0 0.00 0.00 0.00 58 1003.6
20260502121517 9 263 6.4 0.0 0.00 0.00 0.00 57 1003.3
20260502114516 9 230 14.5 0.0 0.00 0.00 0.00 55 1003.3
20260502113014 9 233 16.1 0.0 0.00 0.00 0.00 55 1003.1
20260502111518 10 207 17.7 0.0 0.00 0.00 0.00 53 1002.8
20260502110014 10 208 19.3 0.0 0.00 0.00 0.00 51 1002.9
20260502104514 10 204 17.7 0.0 0.00 0.00 0.00 53 1003.0
20260502103033 10 194 16.1 0.0 0.00 0.00 0.00 53 1003.2
20260502101511 9 254 9.7 0.0 0.00 0.00 0.00 54 1003.6
20260502091507 10 188 22.5 0.0 0.00 0.00 0.00 47 1002.8
20260502070100 10 193 27.4 0.0 0.00 0.00 0.00 46 1003.7
20260502064554 11 192 22.5 0.0 0.00 0.00 0.00 44 1003.7
20260502063057 9 173 16.1 0.0 0.00 0.00 0.00 48 1003.9
20260502061546 10 175 20.9 0.0 0.00 0.00 0.00 45 1004.1
20260502060043 10 167 19.3 0.0 0.00 0.00 0.00 46 1004.2
20260502054552 10 184 19.3 0.0 0.00 0.00 0.00 46 1004.2
20260502053047 10 186 20.9 0.0 0.00 0.00 0.00 46 1004.4
20260502051539 9 169 16.1 0.0 0.00 0.00 0.00 49 1004.4
20260502050044 8 180 16.1 0.0 0.00 0.00 0.00 51 1004.7
20260502044537 8 175 14.5 0.0 0.00 0.00 0.00 52 1004.8
20260502043034 8 167 16.1 0.0 0.00 0.00 0.00 50 1005.0
20260502041538 8 160 14.5 0.0 0.00 0.00 0.00 49 1005.2
20260502040032 8 160 14.5 0.0 0.00 0.00 0.00 50 1005.5
20260502034531 8 168 12.9 0.0 0.00 0.00 0.00 51 1005.6
20260502033038 8 165 11.3 0.0 0.00 0.00 0.00 50 1005.7
20260502031528 7 169 8.0 0.0 0.00 0.00 0.00 52 1005.7
20260502030029 8 159 8.0 0.0 0.00 0.00 0.00 51 1005.7
20260502024527 10 160 9.7 0.0 0.00 0.00 0.00 48 1005.7
20260502023027 10 165 8.0 0.0 0.00 0.00 0.00 47 1005.8
20260502021527 11 159 8.0 0.0 0.00 0.00 0.00 43 1005.8
20260502020026 13 169 9.7 0.0 0.00 0.00 0.00 38 1005.8
20260502014525 16 182 11.3 0.0 0.00 0.00 0.00 33 1005.8
20260502013023 17 186 14.5 0.0 0.00 0.00 0.00 28 1005.9
20260502011522 18 194 17.7 0.0 0.00 0.00 0.00 26 1006.1
20260502010024 18 187 16.1 0.0 0.00 0.00 0.00 25 1006.2
20260502004519 18 203 19.3 0.0 0.00 0.00 0.00 23 1006.3
20260502003017 19 173 16.1 0.0 0.00 0.00 0.00 22 1006.4
20260502001516 19 171 16.1 0.0 0.00 0.00 0.00 23 1006.5
20260502000017 19 227 14.5 0.0 0.00 0.00 0.00 21 1006.7
20260501234514 18 219 16.1 0.0 0.00 0.00 0.00 21 1006.8
20260501233014 19 198 16.1 0.0 0.00 0.00 0.00 20 1006.7
20260501231512 19 161 12.9 0.0 0.00 0.00 0.00 22 1006.7
20260501230013 19 197 14.5 0.0 0.00 0.00 0.00 21 1006.9
20260501224509 19 184 14.5 0.0 0.00 0.00 0.00 21 1006.9
20260501223023 19 192 16.1 0.0 0.00 0.00 0.00 21 1007.2
20260501221505 18 169 16.1 0.0 0.00 0.00 0.00 21 1007.3
20260501220004 18 211 17.7 0.0 0.00 0.00 0.00 22 1007.5
20260501214506 18 171 9.7 0.0 0.00 0.00 0.00 23 1007.6
20260501213109 18 172 12.9 0.0 0.00 0.00 0.00 21 1007.9
20260501211604 18 223 14.5 0.0 0.00 0.00 0.00 23 1008.1
20260501210056 18 142 9.7 0.0 0.00 0.00 0.00 23 1008.2
20260501204609 18 151 16.1 0.0 0.00 0.00 0.00 23 1008.4
20260501203103 17 148 16.1 0.0 0.00 0.00 0.00 23 1008.5
20260501201550 17 164 11.3 0.0 0.00 0.00 0.00 23 1008.6
20260501200048 17 190 14.5 0.0 0.00 0.00 0.00 25 1008.7
20260501194547 17 189 19.3 0.0 0.00 0.00 0.00 24 1008.9
20260501193048 17 219 14.5 0.0 0.00 0.00 0.00 25 1009.0
20260501191543 16 186 17.7 0.0 0.00 0.00 0.00 25 1009.1